Theta_e
309 309 309 309 309 309 309 308 308 306 305 300 297 298 297 295 294 305 309 311 303 290 283 288 286 285 290 295 295 298 296 293 294 293 294 292 294 291 290 291 289 292 292 292 288 289 286 289 287 290 291 291 294 297 297 298 296 295 289 292 291 298 282 278 280 283 287 290 291 292 293 292 288 289 289 286 283 285 281 278 277 278 278 277 274 273 280
309 309 309 309 309 308 308 308 308 307 305 300 299 296 296 296 295 299 307 307 300 291 283 284 283 289 291 292 292 296 294 294 292 292 293 291 291 290 290 292 294 292 296 293 287 293 284 291 290 288 292 288 297 296 297 298 294 293 293 289 294 284 282 282 276 275 279 280 282 283 288 289 284 284 286 288 288 288 287 287 284 277 278 280 275 273 279
309 309 309 308 308 308 308 308 308 307 306 304 297 295 297 295 299 298 301 304 299 291 288 285 283 287 288 289 289 289 291 296 295 294 292 295 292 290 289 293 294 293 296 293 294 294 288 286 293 292 291 289 296 296 297 298 294 296 298 299 299 289 285 284 277 274 272 271 269 273 276 281 284 287 288 289 288 287 284 277 278 275 279 282 278 278 285
309 309 309 308 308 308 308 308 307 307 306 305 298 296 295 294 286 292 294 296 297 294 295 292 290 287 287 284 288 290 286 291 296 295 293 295 295 292 294 294 295 292 290 286 288 288 293 288 287 290 287 290 294 296 296 297 296 299 301 300 296 285 286 284 283 280 279 280 281 284 287 284 282 285 286 287 289 289 288 285 280 278 281 280 282 282 284
309 309 309 308 308 308 308 308 307 306 305 305 299 298 296 296 288 288 287 294 291 292 293 293 294 288 290 285 289 286 287 289 291 297 289 294 293 293 292 292 289 288 287 287 287 289 289 291 288 288 288 291 294 297 297 298 299 301 300 299 292 285 281 284 286 285 285 287 286 288 289 285 286 285 286 287 287 287 286 283 281 286 283 279 285 287 284
309 309 308 308 308 308 308 308 308 306 305 305 302 297 298 288 290 293 295 289 284 287 287 294 293 295 294 288 291 287 286 286 284 290 294 294 294 288 289 291 292 291 290 290 284 282 285 287 284 290 292 291 293 293 297 295 299 299 297 300 291 286 282 283 285 286 288 288 288 289 288 288 287 287 287 286 287 287 285 285 287 287 282 280 286 288 286
309 308 308 308 308 308 308 308 308 306 304 304 301 295 297 296 293 295 298 288 289 291 294 295 294 293 294 287 290 286 287 285 288 289 288 290 291 292 283 287 291 293 295 291 284 285 283 284 290 290 289 291 290 289 293 298 298 298 296 296 296 289 283 285 288 286 287 288 289 290 288 288 287 287 287 287 287 286 287 286 287 287 285 287 287 287 287
308 308 308 308 308 308 309 309 308 305 304 305 303 299 294 291 289 288 294 294 293 292 292 293 292 289 294 285 288 288 287 285 288 290 289 283 288 293 288 289 290 292 292 291 287 290 291 290 287 292 291 290 293 291 292 292 296 297 294 294 295 290 285 291 288 284 285 288 290 290 289 287 285 288 287 288 288 287 287 287 287 287 286 287 287 286 286
308 308 308 308 308 309 309 309 308 305 305 301 299 299 300 298 299 298 291 287 289 292 292 290 290 285 287 284 288 289 288 287 289 289 293 290 289 291 289 290 290 291 291 290 290 294 294 294 294 295 294 289 295 290 292 298 291 294 292 293 293 292 286 291 287 283 283 287 288 289 289 288 286 286 286 286 286 283 285 284 287 285 284 285 285 283 284
308 308 308 308 308 309 309 309 307 305 304 299 298 296 302 299 300 299 294 286 293 288 291 291 287 283 289 291 289 288 288 290 291 284 291 294 294 293 293 291 291 289 288 289 291 295 296 296 297 297 300 299 297 298 299 297 292 291 292 294 289 290 286 285 284 281 282 286 288 287 287 286 283 284 286 286 286 287 287 288 289 288 287 284 282 283 289
308 308 308 308 308 309 309 309 307 305 301 296 295 296 299 296 294 294 291 287 285 288 288 287 289 292 293 293 290 292 290 291 292 286 284 293 294 296 295 293 290 288 288 293 298 298 299 298 298 298 297 300 298 298 297 298 296 295 292 288 287 290 289 286 287 281 283 286 286 287 282 277 279 287 289 287 285 285 283 284 286 288 288 286 288 288 290
308 308 308 308 308 309 309 309 308 306 303 298 299 297 300 301 297 294 287 285 285 288 288 286 289 291 292 292 291 289 289 290 291 293 289 290 293 296 296 294 292 286 294 298 297 297 300 302 303 302 300 299 299 299 298 294 294 296 294 290 286 287 287 285 287 283 283 285 285 281 275 278 286 290 291 292 291 290 287 287 288 288 289 288 286 287 288
308 308 308 308 308 309 309 309 308 306 305 301 298 296 300 301 296 293 291 288 283 286 286 287 291 292 293 292 291 291 291 292 292 292 293 293 293 296 298 295 293 295 299 297 298 296 293 290 290 294 295 295 296 297 296 294 295 298 297 296 290 285 285 286 285 284 285 283 282 274 277 285 288 290 291 293 292 291 288 285 289 290 290 288 286 288 290
308 308 308 308 308 309 309 309 308 307 305 303 298 297 299 299 294 291 289 285 286 289 289 288 289 291 291 291 290 290 291 289 290 291 290 295 293 295 297 297 297 299 299 298 294 291 284 282 281 282 284 287 288 286 292 294 296 296 293 293 294 289 287 284 283 288 280 282 281 280 286 284 286 286 287 289 285 286 284 280 284 290 292 289 286 288 289
308 308 308 308 308 308 309 308 308 306 305 304 300 299 299 301 297 293 294 293 285 286 288 283 288 290 290 290 290 287 285 286 287 287 293 296 296 299 297 298 299 300 298 295 290 287 284 280 279 280 281 281 276 280 290 287 294 296 294 293 295 292 285 287 283 282 283 281 279 280 279 276 281 287 291 293 293 293 291 287 284 291 293 293 289 287 288
308 307 308 308 308 308 309 308 308 306 305 304 299 298 299 303 301 297 293 289 286 282 285 292 293 291 288 289 291 288 284 282 284 286 287 290 294 296 298 299 299 299 298 295 290 284 282 281 280 278 277 279 284 283 282 288 286 291 293 293 294 293 291 288 283 281 282 281 278 278 277 279 284 286 290 293 294 293 292 285 280 290 293 293 291 288 289
308 307 308 308 308 308 308 308 308 306 305 303 296 297 297 303 299 296 292 290 288 285 291 295 294 292 288 287 288 285 287 284 286 283 282 285 291 294 295 298 298 298 295 289 288 283 282 281 281 279 281 285 280 280 284 284 282 282 287 290 288 286 284 283 282 281 282 281 279 277 282 281 286 289 291 293 294 293 288 277 280 290 292 292 291 291 293
307 307 308 308 308 308 308 308 308 306 305 304 298 296 296 300 301 299 294 290 285 285 289 295 292 288 285 288 286 290 291 289 288 288 285 288 291 290 293 294 293 297 297 286 285 280 280 280 281 280 279 286 287 285 277 283 279 279 280 282 281 282 282 282 281 280 281 281 281 282 282 287 291 291 293 294 295 290 279 275 283 291 292 293 294 294 296
307 307 308 308 308 308 308 308 308 307 305 304 300 298 298 300 302 300 295 292 290 284 291 296 296 292 294 296 291 293 293 291 290 285 283 283 287 293 293 295 296 288 293 285 283 282 280 281 284 283 280 282 284 281 284 280 278 281 281 279 279 283 284 284 283 282 280 281 280 280 283 289 292 294 295 295 289 280 278 287 294 293 293 296 296 297 298
307 307 308 308 308 308 308 308 308 307 306 305 300 295 299 301 303 300 294 289 289 289 293 293 295 293 295 292 288 286 288 288 289 287 284 282 288 292 288 284 290 291 287 286 281 284 281 280 281 285 281 280 282 288 281 281 285 281 281 283 279 283 282 281 281 283 283 282 280 279 275 286 294 294 292 295 284 284 291 293 295 297 296 296 297 298 299
307 307 308 308 308 308 308 308 308 307 306 305 303 296 297 302 304 303 302 296 292 287 289 296 297 295 295 294 294 294 292 288 287 286 287 288 290 287 281 283 287 288 285 284 282 282 283 280 281 284 287 286 284 284 281 279 281 287 287 282 282 287 282 282 282 285 280 280 278 279 285 290 295 293 286 291 293 296 296 296 294 297 297 297 297 299 300
307 307 307 308 308 308 308 308 308 307 306 305 304 298 295 301 307 308 306 301 293 288 290 295 297 297 298 299 298 298 297 296 296 295 290 286 287 289 287 292 291 290 290 289 283 283 284 284 285 282 280 282 287 282 284 277 277 285 287 284 279 287 285 286 282 285 284 282 283 288 292 293 295 296 295 296 298 299 298 298 297 296 297 299 298 298 301
307 307 307 308 308 308 308 308 308 307 306 306 303 296 294 297 301 304 303 296 296 296 297 297 298 298 299 300 301 301 301 301 299 297 295 289 284 286 292 289 289 295 294 291 285 284 285 284 281 287 286 288 286 283 285 284 281 282 284 290 287 291 292 289 286 285 289 291 292 293 293 294 294 295 296 296 297 299 300 299 297 298 298 299 298 300 301
307 307 307 308 308 308 308 308 308 307 306 306 304 298 297 298 300 300 299 296 292 287 289 291 290 285 291 295 298 300 301 300 300 300 299 296 286 283 289 293 296 294 292 293 291 288 286 286 288 291 285 289 293 285 284 283 282 286 284 283 286 290 291 288 285 288 285 283 290 290 291 293 293 293 295 296 298 298 300 299 299 299 299 300 301 301 302
307 307 307 308 308 308 308 308 308 307 306 306 304 304 302 298 299 302 298 288 286 286 284 286 286 295 298 300 300 300 300 303 303 301 299 297 293 289 289 294 296 292 292 293 295 291 286 285 285 287 285 292 294 284 290 286 285 290 283 283 284 283 292 287 286 287 284 285 290 291 292 292 293 292 292 293 295 296 298 299 300 300 300 300 301 302 301
307 307 307 307 307 308 308 308 307 306 306 306 305 300 297 296 300 302 300 298 296 292 286 283 289 297 299 297 296 299 302 301 301 300 300 299 299 298 296 297 296 298 296 295 293 288 285 286 285 284 285 286 296 287 286 292 290 290 287 286 289 290 292 284 289 285 287 290 291 291 291 292 293 293 293 294 295 295 296 297 298 298 298 299 301 302 301
307 307 307 307 307 307 307 307 307 306 306 306 304 302 299 300 302 300 298 298 291 284 285 282 287 293 297 294 298 300 301 300 299 299 299 301 300 299 298 295 294 293 294 293 292 287 285 286 284 285 288 286 292 292 292 289 288 285 285 289 292 289 285 289 287 284 284 285 288 290 286 286 291 292 293 294 295 295 295 296 297 297 297 298 299 300 301
307 307 307 307 307 307 307 307 307 306 305 305 304 301 301 299 301 302 302 301 295 285 284 284 286 292 297 293 298 299 301 301 299 298 298 299 300 299 297 296 294 294 292 291 286 287 285 286 287 285 287 291 290 286 291 290 288 284 285 289 292 290 290 288 285 286 286 291 292 292 290 290 292 293 294 295 295 295 294 295 296 296 297 298 299 299 299
307 307 307 307 307 307 307 307 306 306 305 304 301 300 300 301 302 303 303 304 302 296 290 289 291 287 283 292 298 297 300 299 298 298 297 298 299 298 297 297 295 293 293 291 287 285 284 284 283 289 290 293 290 285 286 283 282 283 285 291 293 294 295 294 293 294 293 293 293 293 291 290 292 294 295 295 295 294 295 296 296 297 297 298 300 300 299
307 307 307 307 307 307 307 307 306 305 305 302 298 296 291 295 302 302 304 304 303 299 288 284 281 282 291 294 294 297 298 300 298 298 297 296 297 297 297 296 295 297 294 287 286 287 283 286 284 291 299 301 292 284 284 283 283 284 291 293 295 296 295 296 296 294 292 294 293 292 292 293 294 294 294 295 296 296 295 295 296 296 297 298 299 300 300
307 307 307 307 307 307 307 307 306 305 304 300 297 289 287 285 294 304 303 304 304 296 288 285 284 287 287 293 294 294 297 298 296 296 297 297 297 297 298 298 295 297 289 289 291 286 284 286 284 288 297 299 291 286 284 283 283 283 290 292 294 294 295 296 297 296 295 294 294 294 293 294 293 292 292 294 295 295 294 295 297 298 298 297 298 301 300
307 307 306 307 307 307 307 306 306 305 303 300 296 294 294 295 298 303 305 304 300 293 287 284 283 282 283 289 294 298 299 299 299 298 295 298 295 297 296 297 294 298 292 287 285 288 287 285 288 291 293 296 292 287 286 281 283 283 290 292 294 295 296 297 297 298 296 296 293 291 291 293 293 291 290 293 294 295 295 295 296 295 297 297 299 301 301
306 306 306 306 307 307 306 306 306 304 302 304 305 305 304 305 305 305 305 301 296 290 292 287 283 284 282 286 293 296 299 297 296 295 293 295 295 296 292 296 296 297 302 294 289 287 286 285 286 288 292 295 288 287 285 282 284 289 293 294 294 295 296 297 297 296 296 296 293 290 290 291 292 293 292 293 294 294 294 295 296 295 295 295 296 298 300
306 306 306 306 307 307 306 306 305 305 304 300 296 298 301 305 304 305 303 299 294 292 289 284 281 280 282 289 289 293 299 291 290 293 286 293 297 296 290 295 294 290 292 291 286 289 286 288 288 284 291 290 288 285 284 288 294 295 294 294 295 295 295 295 295 296 296 295 294 293 293 293 293 294 294 293 293 294 295 295 295 295 294 294 295 297 299
306 306 306 306 306 306 306 305 301 299 296 298 298 300 302 306 306 306 303 295 288 284 285 285 284 281 280 281 282 287 299 296 292 291 287 288 298 295 294 290 288 289 287 296 287 286 285 289 290 288 285 286 284 282 283 291 295 295 294 294 295 294 295 294 295 296 296 295 294 295 294 293 293 292 292 293 293 294 294 294 295 294 294 294 294 295 297
305 306 306 306 306 305 303 302 300 296 294 295 299 304 305 305 305 301 301 299 293 286 285 283 283 280 280 279 280 286 296 291 292 292 293 289 295 297 292 286 288 289 293 290 283 287 286 291 290 285 282 284 283 286 289 293 293 293 293 294 295 295 295 295 295 296 296 294 294 295 294 293 292 292 292 293 293 294 294 294 294 294 294 294 294 294 296
305 305 306 305 303 300 295 292 298 298 298 303 304 305 305 304 302 302 298 297 299 299 291 287 283 283 284 281 283 285 292 283 286 284 289 288 286 286 288 286 286 285 290 287 285 285 289 293 285 284 284 283 282 290 294 294 293 293 293 295 296 295 296 296 296 295 295 294 295 294 293 293 293 293 292 293 293 293 294 293 293 293 293 293 294 294 294
305 305 302 299 296 289 289 289 295 302 305 303 304 298 295 296 287 289 292 290 293 296 288 290 284 286 288 287 283 290 291 284 287 286 283 285 286 286 285 286 283 286 284 282 285 293 289 288 286 282 282 287 290 293 294 295 295 294 294 295 295 296 297 297 296 296 293 292 293 293 293 294 293 293 292 292 292 293 293 293 294 294 294 294 294 294 295
303 301 300 298 292 288 288 294 304 305 302 302 299 290 286 287 286 285 285 287 288 286 287 288 285 287 286 284 287 292 291 287 284 282 284 287 286 282 284 284 285 286 282 282 285 296 286 284 285 284 285 288 291 294 295 295 295 295 295 295 296 297 297 297 297 297 295 293 293 293 293 292 292 293 293 292 293 294 294 294 294 294 294 294 294 294 295
299 296 291 292 290 292 302 304 306 302 299 290 290 287 284 287 284 281 285 283 282 283 286 285 289 288 289 286 285 285 291 288 284 282 285 285 290 285 285 285 284 284 280 281 282 288 284 281 281 282 283 286 289 292 294 295 295 296 295 296 296 297 297 298 298 297 297 297 297 297 297 296 296 294 293 293 292 293 294 294 294 294 294 294 294 294 294
298 297 295 290 297 300 301 302 302 300 292 288 287 286 283 282 284 284 285 281 281 282 288 287 288 287 289 289 287 285 291 295 290 288 285 285 288 287 282 282 285 283 279 280 283 286 283 282 280 279 281 286 289 293 294 294 295 296 296 296 296 296 298 298 298 298 298 298 298 299 298 297 296 296 295 294 294 293 294 294 295 295 295 295 294 294 295
299 299 300 303 302 301 300 298 293 289 289 290 285 281 282 281 284 284 284 281 281 282 286 288 284 287 288 291 290 291 288 294 289 285 284 283 284 286 281 282 283 281 278 281 284 283 282 279 278 282 284 288 292 293 293 294 295 295 296 296 296 296 297 298 298 298 298 298 298 297 298 297 297 297 296 294 294 294 294 295 295 295 295 295 295 295 295
304 304 302 297 293 291 290 288 290 289 284 284 280 278 280 281 281 281 281 284 287 287 286 294 290 292 293 296 291 291 288 292 289 286 284 281 284 285 282 281 280 279 279 283 283 280 279 277 277 279 283 289 293 293 293 294 294 294 295 296 296 296 297 298 298 298 298 298 298 298 297 297 298 299 299 296 294 294 294 294 294 295 296 296 296 295 294
302 300 294 289 289 289 290 284 289 286 284 282 279 277 278 278 281 283 282 281 283 285 287 289 288 290 286 288 290 287 286 290 287 285 284 284 285 280 281 280 278 281 284 281 279 279 277 278 279 284 290 292 295 293 293 293 293 293 294 295 295 296 296 296 296 296 297 297 296 296 296 295 297 300 300 297 295 294 294 295 295 296 296 297 297 296 295
292 289 288 287 286 287 287 282 290 286 282 283 283 281 281 281 282 281 283 285 288 286 289 291 290 290 286 289 289 288 287 285 286 284 281 284 282 282 281 279 281 282 281 278 278 277 279 280 286 289 290 291 292 292 293 293 293 295 295 294 295 295 296 296 296 295 295 295 295 295 295 296 296 297 298 298 298 297 295 295 295 296 297 297 297 297 296
288 287 287 285 283 286 286 283 284 282 285 285 283 284 284 287 285 285 289 290 291 291 290 292 291 291 287 288 285 285 284 284 286 283 283 283 280 279 282 283 283 280 278 278 276 275 276 279 285 289 292 292 292 292 292 293 295 294 295 294 295 296 296 295 295 295 295 294 294 294 294 295 295 296 296 298 299 298 297 296 295 295 296 296 296 296 297
289 289 288 288 285 286 286 282 283 286 287 286 288 289 289 289 290 291 292 293 292 293 294 294 293 291 286 286 288 286 285 285 283 283 283 281 280 282 284 282 279 277 276 274 274 273 278 282 288 291 291 291 291 292 293 294 294 294 294 293 294 295 294 294 295 294 295 294 294 295 295 295 295 296 295 295 295 296 296 296 297 296 296 295 296 296 297
287 289 289 285 284 284 283 284 287 288 291 291 290 292 293 293 291 291 293 292 293 293 293 292 289 289 289 288 287 283 283 283 283 282 283 282 283 279 277 277 276 277 278 275 275 277 280 288 291 291 291 291 292 292 292 292 293 293 294 294 294 294 295 295 295 294 294 293 293 293 294 294 295 295 294 293 292 293 294 294 294 295 297 298 297 297 296
289 289 287 286 287 285 283 284 286 286 289 291 292 293 293 292 291 293 294 293 293 293 292 288 286 285 284 284 284 284 283 284 281 281 284 281 279 275 276 275 274 275 275 280 279 280 287 291 290 291 291 291 291 293 292 292 293 293 294 294 294 294 295 295 295 294 293 292 292 292 292 292 292 293 293 293 291 290 291 292 293 293 294 296 297 296 297
289 288 288 286 285 285 285 287 286 285 288 291 292 291 292 291 292 294 297 295 294 293 291 289 287 287 284 284 282 282 282 283 283 282 281 279 277 278 278 275 275 276 275 278 281 285 290 291 291 290 290 291 290 292 293 293 292 293 293 294 294 294 295 294 293 292 291 291 290 290 290 290 291 291 292 292 292 292 290 291 291 291 292 294 295 295 294
289 288 287 288 287 284 287 285 284 284 286 289 291 292 292 292 292 293 294 294 293 287 286 286 284 284 283 281 280 279 281 283 282 280 279 278 280 279 277 275 274 279 282 284 287 292 292 291 291 290 290 290 291 294 294 294 294 294 294 294 294 294 293 292 292 291 290 290 289 288 290 290 290 290 290 290 290 289 288 288 289 290 291 292 293 293 292
287 285 285 285 289 289 288 288 289 289 291 293 293 294 294 292 293 296 297 293 288 287 285 285 285 283 281 280 280 282 283 283 281 280 280 280 281 279 277 278 281 283 286 286 289 292 293 293 292 291 291 292 292 293 293 293 294 294 294 294 294 293 292 291 290 290 290 290 290 290 290 289 289 289 289 289 288 288 287 287 287 287 288 289 290 291 290
Wind_Speed
16 17 17 18 19 19 19 20 19 17 21 9 7 3 3 2 2 5 6 4 3 3 2 3 3 1 1 4 1 0 0 2 1 2 1 1 0 1 1 1 1 1 2 0 0 1 2 1 2 2 4 5 6 3 6 6 8 5 2 4 1 5 0 3 5 6 6 10 8 6 4 2 2 4 3 5 2 1 1 1 2 2 3 4 4 2 16
15 16 17 19 19 21 22 20 18 15 14 5 6 2 1 2 2 6 5 5 5 8 3 4 5 3 4 2 2 2 1 1 2 1 1 1 1 0 0 3 1 0 1 1 2 1 2 3 3 3 2 3 4 6 7 7 5 4 1 2 2 3 1 2 4 5 6 6 6 5 5 6 3 1 3 1 1 2 2 2 0 3 6 7 5 10 12
15 16 17 19 19 20 21 20 18 16 13 9 0 2 2 4 2 3 7 6 6 4 1 2 0 3 3 3 5 5 3 1 1 0 0 0 0 1 1 0 0 1 1 0 1 1 2 2 3 4 2 4 3 8 10 6 6 4 5 7 1 2 2 1 2 3 5 5 2 2 3 4 4 1 2 3 4 5 6 3 3 3 2 4 7 13 17
15 15 16 17 18 19 19 18 18 17 14 12 1 1 2 3 2 5 6 6 6 3 1 3 3 4 2 4 4 0 2 2 3 1 0 2 0 1 0 1 1 0 2 2 1 1 3 3 3 1 2 2 3 3 7 7 6 7 8 4 5 1 0 2 3 4 6 7 5 3 1 3 5 9 8 12 9 4 1 2 4 8 5 12 13 13 21
15 15 15 15 17 18 18 20 19 18 16 12 2 1 2 1 3 2 6 6 4 4 3 4 4 4 2 1 1 2 1 2 1 3 1 1 1 0 1 1 3 1 3 1 3 2 2 5 3 4 4 3 4 7 9 5 3 6 4 4 3 1 1 5 5 7 9 9 11 9 5 7 10 10 11 8 6 7 7 6 10 3 6 21 5 7 14
14 15 14 14 16 17 18 19 20 20 19 14 2 3 1 2 1 2 1 1 4 6 7 7 9 13 1 2 1 0 3 4 1 4 1 1 1 1 3 3 2 3 1 1 2 2 2 2 2 2 3 4 3 6 4 1 3 6 1 1 2 2 2 4 4 7 10 9 11 9 7 8 7 8 8 9 8 7 8 10 11 11 11 18 14 14 21
13 14 14 14 15 16 17 17 18 20 22 11 2 2 3 2 1 0 1 1 2 1 8 8 7 10 3 0 3 2 2 4 1 1 3 2 0 1 0 3 5 6 3 1 3 3 6 2 4 2 3 2 3 4 5 2 2 3 1 1 0 1 3 4 4 8 9 10 10 10 11 8 8 7 6 5 6 8 9 10 12 13 15 16 17 19 26
12 13 14 14 14 15 16 16 16 19 22 8 5 5 2 2 1 4 3 2 3 3 3 3 4 4 4 2 3 0 2 4 5 3 1 1 2 0 1 3 6 6 5 1 2 4 4 8 7 4 3 4 3 2 3 3 3 5 3 0 1 0 3 1 1 4 11 8 8 9 10 8 8 6 3 6 7 7 8 8 11 13 15 16 16 19 22
10 11 12 13 14 14 15 14 14 17 15 5 5 2 2 2 1 0 2 4 4 2 3 5 4 3 5 4 3 2 3 4 3 4 2 3 1 1 3 3 4 4 3 4 6 9 8 8 11 12 3 7 2 2 2 1 6 4 2 1 1 1 3 2 1 3 7 1 3 6 7 9 10 5 3 3 6 7 6 9 8 8 14 16 17 19 17
9 10 11 12 13 14 14 13 12 14 12 4 2 3 3 1 1 0 1 1 3 4 3 3 3 4 1 2 3 1 4 4 4 4 5 2 2 3 4 4 1 5 4 8 7 8 7 9 10 8 5 8 4 4 2 2 2 2 2 1 1 3 1 3 2 3 6 2 2 6 6 4 4 4 2 5 8 8 12 12 14 15 15 14 14 16 14
9 9 10 10 11 13 12 11 9 11 7 5 3 1 3 5 3 4 4 1 4 4 4 2 4 2 3 6 3 4 4 8 5 2 3 3 7 3 3 3 2 6 4 6 7 4 7 7 7 2 3 4 3 2 1 2 2 3 1 1 1 1 3 3 0 3 5 8 9 7 1 2 2 3 5 1 10 13 14 16 19 18 8 11 12 18 20
8 9 8 9 10 11 11 9 7 8 6 2 0 2 2 2 0 2 2 2 4 2 2 1 2 3 4 7 4 4 6 8 7 2 3 3 6 6 4 3 2 3 5 5 4 4 5 1 5 8 9 6 3 1 2 2 2 3 2 2 3 4 3 3 1 3 4 7 8 5 2 1 2 4 8 6 12 11 13 18 18 19 16 16 19 21 21
8 8 8 8 9 10 9 9 7 5 5 3 1 1 2 2 1 1 1 1 3 4 5 3 4 5 3 5 7 6 6 6 5 7 3 1 5 5 1 2 3 4 4 7 6 5 2 1 1 3 4 4 4 5 6 4 3 2 3 5 1 3 4 3 2 3 3 3 6 6 2 4 5 6 10 8 9 8 14 19 16 12 11 11 16 21 22
8 7 7 7 8 9 9 8 7 3 5 4 3 2 2 2 2 2 2 2 4 2 2 4 5 7 8 8 4 6 4 6 8 2 5 3 5 4 5 5 6 7 6 2 3 2 3 4 2 4 4 3 1 1 2 2 3 1 7 5 3 2 0 1 3 1 6 6 6 7 1 4 1 4 8 13 12 16 15 15 22 20 9 8 12 18 21
7 6 6 6 7 8 6 6 5 2 3 2 1 2 3 3 0 2 0 1 2 4 2 0 4 5 4 5 2 6 3 5 7 7 4 3 1 2 2 7 7 8 5 3 4 4 2 2 3 3 3 4 3 3 2 1 1 0 3 4 1 1 3 1 2 2 1 5 5 4 1 2 2 6 11 7 10 12 11 9 20 10 1 6 12 20 25
7 6 6 6 7 7 6 4 4 1 2 3 1 1 4 3 1 1 2 1 1 4 2 2 1 2 3 3 2 2 2 4 4 4 7 4 3 7 6 10 6 6 6 3 2 2 3 3 1 2 2 2 2 1 2 3 2 2 2 4 2 2 1 0 2 3 4 5 4 4 3 1 2 16 16 16 15 14 9 7 14 2 14 25 22 24 26
6 6 6 6 6 6 4 3 3 2 2 3 2 2 2 3 2 1 1 1 2 6 3 3 1 1 1 4 5 3 1 3 3 3 4 6 5 4 6 10 5 6 6 4 6 4 5 4 1 1 1 1 2 1 3 2 4 4 5 1 1 2 4 4 4 4 4 4 4 4 1 3 7 14 14 19 18 15 7 9 15 21 28 26 23 24 26
6 6 6 6 6 5 3 2 3 3 3 2 1 1 3 4 2 1 1 1 0 4 3 1 4 2 1 0 3 4 0 2 4 2 1 4 2 3 5 5 6 4 5 5 3 4 3 3 4 2 1 1 1 1 2 3 4 4 6 7 4 4 3 3 5 2 7 6 3 3 2 2 6 13 15 17 17 9 8 11 14 22 26 25 23 26 24
6 6 6 7 6 5 4 2 3 4 3 3 0 0 3 3 3 1 2 0 1 4 6 4 2 4 2 1 3 2 0 0 1 0 4 5 1 3 5 4 1 3 7 3 4 3 2 1 1 1 1 5 3 1 3 2 2 4 2 6 4 5 2 1 1 6 6 4 4 5 4 3 4 9 14 13 11 11 17 13 14 18 23 25 24 24 23
6 6 6 6 6 5 4 3 4 4 4 3 1 1 4 4 3 2 2 1 1 5 9 5 2 4 1 1 3 3 5 4 0 1 1 2 5 7 6 2 5 3 6 3 4 2 3 2 2 1 2 1 1 0 2 2 0 2 3 0 2 4 3 6 6 3 2 2 5 6 8 4 13 15 6 2 12 9 10 16 18 16 20 23 23 20 21
6 6 6 6 6 5 4 4 4 4 5 4 3 1 4 2 2 3 3 3 1 3 7 3 3 6 2 5 6 7 4 5 3 0 3 3 4 1 2 0 4 1 1 2 2 2 1 1 3 1 1 0 3 2 2 2 3 3 2 1 1 0 2 2 2 0 4 5 8 6 6 12 13 9 8 11 7 10 12 12 16 17 17 19 18 20 20
6 6 6 6 6 5 4 4 4 5 6 5 4 1 1 3 1 1 2 2 2 5 7 6 3 10 11 9 9 9 11 10 10 5 2 3 3 1 2 0 1 1 1 0 2 2 3 1 1 1 2 3 2 1 1 1 2 3 2 2 3 1 1 2 4 3 2 3 3 9 10 11 10 6 8 10 13 12 13 11 12 14 17 19 16 20 21
6 6 6 6 6 5 4 4 5 6 6 7 3 1 3 3 5 4 2 2 3 4 5 6 5 6 7 8 12 14 13 11 7 4 4 1 3 2 1 2 2 0 0 1 2 3 2 1 1 2 1 1 2 4 2 1 0 2 1 2 1 2 2 1 2 4 3 5 10 9 8 10 11 8 6 8 11 12 9 9 12 14 16 16 16 18 20
6 6 6 6 6 5 5 4 6 7 8 8 5 1 1 2 4 3 3 1 0 6 5 1 4 4 2 8 12 4 5 5 10 8 4 4 2 2 2 1 1 1 1 2 3 1 2 1 3 0 1 3 0 1 0 3 1 1 1 4 2 2 1 1 3 4 2 3 6 6 9 9 10 8 7 7 8 10 9 10 9 13 16 17 17 17 19
6 6 6 6 5 5 5 5 6 8 7 8 5 0 1 3 2 2 2 1 3 3 1 7 4 9 3 5 7 2 3 5 2 5 5 5 5 3 2 3 3 1 2 3 0 2 2 0 2 0 1 4 1 3 0 1 4 1 2 3 2 4 1 1 2 4 1 6 9 10 7 8 8 6 7 11 13 13 11 9 10 12 14 16 17 17 19
6 6 6 6 5 5 5 4 7 9 8 8 5 3 1 2 2 3 1 1 2 1 2 3 7 5 6 12 7 3 3 3 4 6 7 7 7 7 5 0 1 1 1 1 3 1 1 0 1 1 1 4 1 1 2 4 3 1 1 3 2 4 2 3 3 2 6 7 8 7 6 6 6 5 5 7 11 13 14 14 14 14 16 19 21 18 17
6 6 6 5 5 5 4 4 7 9 8 7 5 2 1 3 3 2 0 2 2 1 0 4 6 7 6 12 10 6 4 4 5 7 6 4 5 3 3 2 2 1 1 1 1 2 1 1 1 3 3 4 2 2 2 1 2 1 1 4 3 3 3 3 3 4 5 7 11 10 11 11 12 8 9 10 11 11 13 14 15 17 18 18 20 22 21
6 6 6 5 6 5 4 5 8 9 9 6 2 1 1 2 3 2 1 1 0 1 2 4 7 12 9 8 5 4 8 4 6 8 8 7 6 5 5 5 3 0 0 1 2 0 1 0 5 4 1 2 1 3 0 1 1 1 2 4 2 2 3 3 4 5 6 7 8 6 3 4 7 9 7 8 9 9 13 16 16 16 15 15 17 20 22
7 6 6 6 5 5 5 6 9 9 9 6 1 2 4 6 7 5 5 3 1 2 3 6 6 3 1 7 11 10 6 2 7 9 9 8 8 7 7 7 6 4 1 1 1 1 2 4 2 2 2 3 2 3 3 1 0 2 3 4 5 4 2 3 3 4 5 6 6 6 4 7 8 9 7 8 8 7 10 12 13 14 14 14 14 16 18
7 6 6 5 5 4 6 8 10 10 8 4 2 1 2 2 1 2 4 4 3 1 1 4 5 5 3 4 5 4 5 5 4 8 9 8 8 8 8 6 5 4 2 3 3 2 4 2 2 2 0 1 1 1 0 0 0 3 3 3 6 7 5 6 2 2 3 5 4 4 5 8 6 5 5 6 7 7 9 12 13 14 14 13 12 14 16
6 6 6 5 5 5 7 10 11 11 8 3 2 2 1 1 1 2 4 3 2 2 1 1 6 6 7 4 4 8 7 3 3 5 9 9 9 10 7 5 2 5 3 1 1 5 1 2 0 1 0 2 3 1 2 1 1 2 3 3 5 5 5 7 7 4 4 5 6 5 5 6 5 4 5 7 9 8 7 10 13 13 14 12 12 13 14
6 6 6 5 5 6 9 11 13 10 5 4 4 3 2 1 1 4 4 3 3 2 0 3 4 3 3 4 3 3 3 5 3 2 2 4 5 5 4 9 6 6 6 4 3 0 3 4 2 2 3 4 3 1 2 2 1 3 3 4 4 4 4 6 6 8 7 4 4 5 6 8 7 5 5 8 8 8 8 9 11 11 12 10 10 11 13
6 5 5 4 5 8 11 12 12 7 3 2 6 6 9 11 10 9 2 3 2 0 1 1 2 2 1 6 6 5 4 0 0 3 3 3 5 3 3 3 3 2 3 2 1 3 4 3 1 0 3 2 3 1 2 2 3 3 4 3 3 3 5 6 4 4 5 7 2 4 6 6 7 8 5 6 6 7 8 9 10 10 10 11 11 13 15
5 5 5 6 8 11 13 12 9 4 4 2 2 3 3 7 7 8 2 1 0 1 0 0 1 2 5 5 3 6 2 3 3 2 3 2 3 4 3 2 0 2 2 6 4 0 2 1 3 2 1 1 0 2 0 1 7 9 4 2 2 4 4 4 5 7 8 7 6 3 3 4 4 5 7 7 8 7 7 7 9 12 13 12 12 12 12
6 6 7 10 12 12 13 11 4 1 1 1 3 4 1 2 4 5 6 2 1 1 0 1 1 2 4 4 1 7 2 1 3 2 3 3 1 3 1 2 1 1 4 1 1 2 2 4 5 2 4 1 2 1 2 5 6 6 0 1 3 4 4 5 6 8 8 6 5 6 6 5 6 6 6 7 8 8 8 9 10 10 12 13 12 10 11
7 9 12 14 15 11 5 2 1 2 0 2 2 2 3 4 5 3 3 1 1 1 0 2 0 3 2 2 2 4 2 3 3 1 2 1 1 0 2 3 1 6 1 2 4 0 2 2 3 3 1 1 4 4 6 6 5 4 2 1 1 0 1 2 4 7 7 6 6 6 8 6 5 5 5 6 7 7 7 8 9 10 10 11 12 10 9
12 15 18 15 6 1 1 2 1 3 3 1 3 4 5 4 3 2 2 0 1 1 2 0 2 5 4 4 2 5 3 2 2 2 1 1 3 1 2 1 4 3 1 1 1 2 6 1 1 1 1 2 3 5 6 5 6 5 2 1 1 1 1 3 2 3 6 8 9 8 6 5 5 5 5 6 7 6 8 10 9 10 12 12 11 11 9
17 14 8 3 2 1 1 2 2 3 7 5 3 2 2 2 1 0 1 1 1 2 2 1 6 3 1 1 5 5 1 4 2 1 2 1 1 1 0 1 4 2 3 3 5 5 3 1 2 3 1 3 2 3 5 4 5 4 4 2 2 1 0 2 3 4 5 5 7 8 8 7 6 5 4 5 6 6 6 5 6 6 7 8 9 8 9
13 4 2 1 1 2 2 1 2 9 5 2 1 1 0 0 0 0 2 1 0 2 2 4 6 4 5 4 7 4 2 2 5 2 1 2 1 3 1 0 2 1 1 1 2 2 0 1 0 1 1 0 1 3 3 3 2 4 4 3 2 1 1 1 0 0 1 1 3 4 2 1 3 4 4 4 5 5 5 5 6 6 6 7 8 8 9
4 3 3 2 2 1 1 1 2 3 1 0 1 1 0 1 1 2 1 1 1 2 3 5 5 6 9 10 6 6 1 4 2 2 1 5 0 1 1 1 2 1 1 0 3 1 1 1 1 1 1 2 3 3 1 2 4 3 3 2 1 1 1 1 1 0 1 3 2 3 4 4 3 2 3 2 4 5 6 6 6 6 6 7 8 8 9
2 2 2 2 3 2 1 2 1 1 1 1 0 0 0 1 2 2 1 2 2 3 4 5 2 3 4 4 3 6 6 1 2 2 2 2 3 2 2 1 1 1 1 1 3 1 1 0 0 2 4 4 3 2 3 3 2 0 1 1 1 2 1 1 2 2 3 4 4 6 6 5 4 4 2 1 2 4 5 5 6 6 6 7 7 7 6
4 4 3 5 4 3 2 1 1 1 0 0 0 2 2 2 1 1 1 2 3 1 3 3 3 3 5 11 8 4 4 2 1 1 1 1 1 1 2 1 1 1 2 4 1 1 1 1 0 1 2 3 3 3 4 3 1 1 1 1 1 2 1 0 2 4 1 2 4 4 4 4 5 4 4 2 2 3 4 5 7 7 6 5 5 5 6
15 10 5 4 2 1 1 1 0 1 1 0 1 2 1 1 2 3 2 2 1 1 3 2 3 1 0 3 1 3 4 1 1 1 1 1 1 1 0 1 1 0 3 1 1 0 0 1 1 3 4 3 4 4 4 3 2 1 1 1 1 1 2 0 2 4 4 3 4 4 3 4 5 4 3 2 3 4 4 4 4 5 6 6 6 5 5
4 3 3 1 2 1 0 1 0 1 0 1 2 3 1 1 4 1 1 3 2 2 3 4 4 4 5 2 3 1 1 1 2 1 0 1 1 0 0 1 3 4 0 1 1 0 3 1 4 4 4 4 3 2 2 3 4 4 3 3 4 4 4 2 3 4 6 5 4 3 2 3 3 5 5 3 3 4 4 4 4 5 6 7 7 6 5
4 1 2 1 1 1 1 1 0 1 4 4 3 4 3 4 5 5 6 4 2 4 1 2 3 2 4 3 1 0 1 1 1 1 2 0 0 0 1 2 2 1 0 2 1 2 1 1 1 1 3 4 4 4 4 4 4 5 4 2 4 3 4 3 4 3 3 4 4 4 4 4 4 4 4 4 3 3 4 4 3 5 5 6 7 7 6
2 4 3 3 2 2 2 2 2 3 3 3 5 7 5 6 3 3 4 2 3 6 7 6 5 4 3 1 4 2 0 2 1 1 1 1 1 2 3 0 1 1 1 0 1 3 5 5 6 6 6 5 4 4 3 2 4 3 5 4 2 2 3 3 3 2 2 3 4 4 4 4 4 4 5 5 6 7 6 5 4 4 4 6 7 6 6
2 0 1 1 2 2 1 4 7 6 5 4 6 5 6 5 4 5 3 1 6 7 8 7 4 6 5 2 1 2 1 1 1 2 1 1 2 2 1 0 2 0 1 2 3 3 2 3 6 6 5 4 3 3 4 4 4 4 4 3 3 4 4 3 2 2 3 3 5 6 5 5 5 5 5 6 7 6 7 7 7 5 4 4 5 6 7
3 1 2 2 4 3 7 7 2 2 3 4 3 4 5 3 2 8 6 2 5 5 8 3 1 2 1 2 2 3 2 0 0 2 2 1 1 1 1 0 1 1 1 2 5 4 4 5 7 6 6 4 6 6 4 4 3 4 4 4 4 4 4 3 2 3 4 4 5 5 5 6 6 6 5 5 5 6 6 7 7 6 6 5 6 7 8
2 3 3 3 2 3 3 2 4 5 5 4 3 2 2 2 6 9 7 3 5 8 6 3 2 2 1 1 1 0 1 0 1 3 0 1 1 2 1 1 0 1 4 4 5 4 6 7 6 5 5 6 5 7 5 4 5 4 4 4 4 4 2 1 1 3 5 5 5 5 5 4 4 5 4 5 6 5 4 6 7 7 6 6 5 7 8
1 1 0 1 1 3 2 2 5 5 5 4 3 4 3 3 5 8 3 3 5 3 1 3 2 1 2 1 1 0 1 1 2 0 1 2 2 1 1 1 3 3 4 3 3 3 6 7 6 6 6 6 6 7 7 5 5 4 4 4 3 2 2 3 5 5 5 5 5 4 4 4 4 4 4 4 3 2 5 7 7 7 7 6 6 7 7
0 0 3 3 6 4 6 5 8 4 5 7 6 5 2 4 3 5 2 3 1 1 1 3 2 1 0 1 1 0 3 1 1 2 3 3 2 2 3 3 4 6 7 6 6 6 8 6 7 7 6 6 6 9 9 9 7 7 6 6 5 4 4 5 5 5 5 4 4 6 5 4 4 4 4 4 4 5 5 6 5 5 6 6 6 6 6
1 3 5 4 5 5 3 0 0 4 4 3 3 3 3 2 2 4 5 3 1 3 4 1 1 1 1 2 3 2 0 1 1 0 0 3 2 2 2 5 6 7 7 7 5 6 6 6 7 8 8 8 8 8 7 6 6 5 5 5 5 5 5 5 5 5 5 5 5 5 5 4 5 4 5 6 5 4 5 4 4 4 4 4 4 4 4
Wind_Direction
321 323 325 328 334 338 340 345 349 355 354 12 348 333 11 49 231 257 302 308 104 70 54 325 18 50 237 281 347 302 13 133 264 65 350 66 16 33 46 209 63 321 6 303 51 133 284 270 206 261 273 277 272 271 313 311 298 318 283 347 302 306 59 343 294 299 286 281 274 287 333 312 14 18 21 36 29 146 184 176 192 263 292 332 319 245 278
319 322 326 331 334 336 340 343 347 353 13 356 302 36 35 275 264 318 294 11 84 80 83 354 336 310 321 44 285 325 189 104 353 18 315 130 330 81 240 357 149 179 231 124 319 174 13 197 238 279 249 278 247 279 279 271 295 326 244 23 311 12 306 71 318 335 325 337 352 10 342 51 74 313 317 122 103 60 284 273 21 250 201 190 224 251 258
319 324 329 332 334 335 338 342 341 348 350 357 10 0 291 280 254 240 300 346 57 67 192 127 242 322 316 355 337 339 359 254 155 211 271 302 178 76 335 7 45 196 259 202 191 173 162 280 267 244 223 245 260 270 274 291 290 245 247 271 163 242 234 84 301 323 324 315 333 316 327 308 291 223 318 307 325 331 4 356 353 281 284 224 224 250 262
319 324 332 332 333 334 337 339 339 340 345 348 102 259 14 15 14 309 338 359 9 56 69 108 66 335 335 348 279 103 328 327 296 30 257 186 307 150 147 305 41 216 45 14 337 282 192 161 269 340 282 290 292 253 280 288 278 299 295 263 127 191 271 153 172 180 230 239 248 227 35 346 312 296 306 301 313 305 204 209 250 264 279 264 231 257 289
320 326 331 334 332 334 337 337 337 337 340 348 142 327 138 297 63 352 339 332 30 357 7 19 15 314 222 303 227 2 291 284 321 271 73 303 108 21 41 327 26 308 56 339 313 248 226 225 255 249 250 246 261 295 290 299 357 19 35 47 98 73 304 233 211 229 238 252 257 261 277 271 273 279 284 294 297 307 305 265 267 278 293 270 247 223 251
321 327 333 334 333 333 336 337 336 336 337 341 166 10 16 54 276 89 193 126 278 8 328 5 331 312 329 208 47 233 1 1 7 317 316 59 55 90 323 20 320 307 334 344 312 290 269 197 219 271 238 286 291 315 313 240 72 67 54 59 110 152 230 261 189 245 246 248 260 269 266 249 261 274 289 297 320 316 285 278 280 274 248 264 292 287 274
321 326 332 334 332 332 334 337 337 338 335 342 112 58 315 108 281 236 17 44 270 187 271 308 287 298 299 192 27 358 13 337 265 234 321 23 332 127 1 303 301 302 317 87 271 300 345 310 218 200 268 225 332 323 328 289 21 90 82 23 98 92 241 248 223 268 266 258 261 261 261 265 264 261 271 299 298 285 276 274 272 268 268 277 286 279 272
320 324 330 332 333 332 333 339 345 341 338 333 83 52 54 358 31 311 351 281 276 257 273 277 320 337 352 67 325 77 332 319 319 323 90 12 293 355 98 279 289 301 311 284 264 253 214 251 286 282 258 300 185 238 219 300 327 1 320 159 301 105 272 282 318 302 283 267 242 246 244 234 251 242 175 246 262 269 269 264 265 268 269 269 269 275 279
316 322 327 329 333 332 335 343 352 346 346 45 40 73 33 275 193 190 317 324 272 286 3 340 351 34 355 51 311 340 303 316 311 289 227 157 232 230 271 249 286 292 310 297 263 268 260 242 226 248 257 290 206 126 273 75 313 355 339 8 270 190 263 346 281 284 292 323 205 244 243 235 235 226 224 283 296 295 292 285 273 261 273 278 278 279 273
315 319 323 329 333 331 339 347 357 356 352 87 32 29 299 332 283 40 133 293 329 7 334 319 40 37 322 357 300 312 290 300 350 342 299 202 231 225 237 241 210 293 330 294 270 273 261 249 252 253 160 230 231 181 177 144 185 303 293 227 212 210 247 309 293 285 260 265 300 289 286 252 213 145 191 233 254 263 273 263 258 248 254 263 268 266 269
313 316 319 328 332 333 341 350 7 11 22 62 56 328 330 27 346 353 36 33 317 19 13 346 56 348 336 342 320 325 325 336 340 18 288 321 301 260 202 254 271 268 270 259 256 246 259 257 269 315 163 181 151 124 145 209 184 197 217 341 282 268 258 271 144 256 290 308 317 305 6 56 126 146 154 312 323 313 304 303 301 292 244 245 249 263 270
308 310 316 324 334 334 342 349 4 35 50 16 240 231 255 327 27 96 63 50 273 317 68 256 10 295 341 318 339 328 328 323 315 289 249 268 270 301 283 285 128 324 244 258 313 296 275 45 63 62 59 58 67 136 205 199 270 230 174 177 269 307 311 276 185 268 288 316 318 335 50 57 120 159 192 284 323 309 293 283 282 281 275 262 258 258 261
299 306 317 327 336 336 341 346 349 33 47 20 41 340 297 305 139 113 131 121 254 322 347 309 309 283 289 339 341 328 309 293 308 318 260 273 328 326 311 329 322 281 296 309 327 18 41 303 339 74 84 52 8 7 332 342 314 272 225 212 212 312 348 299 304 244 273 312 350 345 335 138 160 222 216 279 295 296 311 303 286 262 257 256 265 267 273
298 309 318 328 332 331 337 347 340 17 42 53 31 295 296 342 56 43 79 92 282 257 233 319 335 348 357 340 324 308 332 342 326 348 1 316 307 330 344 355 321 299 297 283 21 57 27 32 28 9 330 15 19 356 290 295 258 283 356 354 148 217 354 34 314 32 336 331 311 284 182 135 234 355 345 350 333 322 327 310 298 296 310 273 263 275 280
297 307 315 321 325 327 337 341 316 356 39 38 90 298 305 316 79 123 156 126 265 278 198 153 341 310 317 313 6 357 355 318 358 327 302 289 305 12 316 324 326 332 333 43 353 34 117 98 29 2 327 31 7 307 298 17 333 229 10 336 62 124 49 298 15 293 263 325 304 306 325 309 12 319 308 302 296 297 293 289 285 311 249 279 292 299 301
294 300 307 312 320 326 330 348 310 306 52 357 47 309 284 280 299 97 123 143 121 350 227 168 337 309 311 292 316 349 323 322 318 304 337 336 306 328 346 336 329 342 18 60 52 74 27 78 27 61 21 334 277 352 326 311 316 284 309 320 6 16 75 109 129 274 328 338 331 335 308 255 198 336 327 317 317 310 320 281 271 251 326 326 325 312 305
290 296 301 308 311 320 327 324 291 224 91 51 43 9 301 331 33 105 72 19 103 223 258 329 338 2 342 334 1 6 350 326 328 2 331 328 318 318 318 334 326 20 17 73 12 52 30 36 46 98 279 285 20 270 299 344 312 307 308 310 294 6 349 5 30 1 349 315 330 339 312 324 334 325 324 325 312 319 301 322 331 335 327 318 315 308 307
284 290 298 303 305 312 310 303 252 207 151 120 90 62 292 308 284 94 58 115 186 281 266 128 29 2 270 225 291 263 334 7 8 328 245 272 318 0 330 331 336 330 40 73 6 58 45 48 25 5 355 277 314 51 0 307 338 321 325 332 343 355 344 33 358 303 340 342 286 264 285 243 285 322 325 323 310 299 344 353 302 315 310 309 309 309 309
274 283 291 294 297 304 304 280 242 226 176 141 87 6 269 239 294 61 123 68 116 262 262 314 226 202 231 349 246 262 192 239 248 63 314 356 312 293 281 257 20 1 1 44 37 63 74 327 326 53 30 319 18 9 303 5 311 291 327 359 341 6 325 240 303 6 346 313 312 293 266 221 264 317 331 314 320 12 341 299 297 298 304 312 314 314 313
266 272 281 287 290 295 290 274 246 221 184 155 108 212 259 290 269 172 119 174 191 251 287 271 161 212 216 312 304 339 326 4 316 131 150 243 282 340 26 14 331 67 360 49 41 326 77 355 291 345 23 325 285 252 17 279 307 326 316 258 83 330 358 345 342 310 231 336 331 343 5 316 316 326 318 54 2 308 279 294 301 309 314 317 317 316 314
258 267 276 283 290 289 284 272 238 210 185 154 123 42 333 280 226 215 164 140 151 310 304 270 217 233 238 246 215 215 194 217 211 220 230 217 260 53 76 215 274 0 356 61 70 337 56 321 320 322 259 189 277 39 325 291 323 282 339 326 144 255 66 320 292 138 328 359 10 3 270 282 302 353 326 315 270 269 280 293 307 319 321 321 322 317 321
255 261 270 279 285 285 280 261 225 201 183 173 160 90 272 279 333 17 282 156 171 199 229 246 255 279 268 253 238 218 221 223 226 191 249 299 320 86 203 112 325 76 227 90 40 11 2 277 352 31 334 304 21 246 223 43 6 290 330 65 13 5 91 241 285 290 18 303 246 244 264 278 293 287 264 268 277 278 278 287 301 314 322 320 321 320 325
255 259 268 275 281 282 264 253 212 183 183 183 161 129 208 310 329 330 340 238 276 279 265 283 287 271 273 253 234 228 222 215 230 240 205 129 325 346 38 60 331 260 102 106 163 159 194 121 243 198 326 270 269 318 325 161 205 332 5 308 234 256 245 130 108 277 253 253 240 269 298 298 291 283 263 284 294 287 284 295 309 322 318 319 319 323 332
254 259 264 271 282 281 267 243 207 177 183 192 180 126 278 305 277 335 345 256 335 302 311 320 37 326 334 337 323 334 167 193 211 214 183 139 149 306 328 275 206 29 32 247 173 129 205 128 217 286 223 255 166 236 290 326 318 255 16 328 319 277 279 39 261 295 33 327 306 305 299 306 300 297 301 293 296 304 306 301 303 313 320 321 327 333 338
253 259 261 267 275 270 257 240 194 174 181 196 196 335 354 318 297 39 9 3 333 60 273 308 285 236 275 313 278 228 188 210 172 195 188 165 152 154 198 228 183 148 231 238 56 56 43 100 327 346 263 271 102 298 89 339 298 87 26 273 359 321 256 311 250 306 270 290 297 297 296 285 290 305 321 333 333 331 328 317 307 313 321 332 335 341 346
250 255 255 254 256 253 247 231 184 174 177 193 187 166 172 249 319 8 304 233 248 205 283 297 278 303 351 348 322 268 312 295 205 185 181 186 178 178 180 277 352 57 151 141 119 141 163 138 196 207 136 283 132 205 216 192 231 279 121 279 227 253 2 307 327 317 275 276 278 298 308 268 293 337 333 322 330 332 333 334 334 336 342 342 342 351 351
243 247 250 250 248 246 234 211 179 172 174 186 195 202 266 285 279 271 271 333 6 6 9 267 276 295 356 312 283 299 253 211 220 190 189 180 170 163 140 148 190 334 45 343 323 143 123 149 129 242 183 231 186 212 178 336 201 252 317 277 316 23 324 293 24 334 337 340 333 342 358 350 338 351 346 337 333 333 331 339 344 350 351 349 346 348 352
238 241 245 250 246 237 219 195 172 167 169 169 172 223 268 266 256 211 206 217 279 187 257 277 302 295 304 267 256 259 282 240 187 186 188 190 176 169 174 182 160 110 303 107 345 351 112 233 259 228 226 291 31 305 295 232 55 29 316 287 291 266 284 6 344 335 313 307 315 327 298 281 309 336 335 336 333 336 346 347 346 347 350 348 349 352 354
234 236 242 239 236 223 211 179 165 159 154 145 115 344 278 246 246 242 235 222 193 293 262 266 290 336 4 300 312 308 286 188 171 187 188 187 183 183 188 185 186 180 149 136 142 151 172 230 194 192 228 212 112 271 37 331 112 222 239 268 302 258 269 290 283 295 274 273 302 316 337 335 324 342 325 332 329 338 343 343 343 345 348 350 350 357 357
231 234 231 233 225 208 195 171 157 150 145 115 87 349 19 345 184 211 232 212 199 162 357 346 331 262 297 313 276 269 298 295 188 187 190 191 191 192 197 182 215 191 161 171 165 253 226 201 266 274 271 90 159 201 68 206 184 248 250 265 282 302 320 315 347 337 271 291 300 299 312 325 330 324 307 320 327 338 342 339 341 343 348 351 353 357 1
227 226 226 218 214 192 175 159 151 149 146 123 103 74 68 55 292 56 3 334 188 127 190 146 243 299 317 251 250 273 258 258 231 203 206 200 197 198 198 172 207 152 205 258 213 233 140 276 196 281 252 196 124 139 196 138 268 312 259 257 281 295 313 311 316 302 270 290 313 313 335 332 330 339 329 332 338 344 342 341 343 344 344 352 359 2 1
221 219 218 205 187 176 162 151 152 152 162 167 173 151 181 181 247 317 335 331 354 60 65 322 317 338 290 295 254 250 259 240 190 175 218 152 236 205 200 174 204 180 170 180 214 104 234 215 163 211 166 221 116 155 101 104 178 240 269 296 287 284 303 321 329 324 325 306 357 356 353 339 350 13 318 322 333 340 347 340 342 343 345 351 356 5 6
211 203 193 185 169 159 151 151 151 154 182 306 310 279 249 246 247 257 308 332 40 219 157 101 250 283 281 263 306 287 209 178 277 160 248 199 214 157 215 202 170 169 204 120 241 211 216 151 159 340 257 120 118 178 117 171 215 237 239 246 266 304 326 311 305 303 324 321 18 36 350 334 328 334 333 331 336 344 346 352 346 344 354 360 6 9 12
192 181 165 160 147 144 148 147 138 120 41 21 298 275 258 230 222 230 159 57 35 236 80 128 312 297 268 316 358 283 153 145 249 179 248 283 190 119 213 119 37 162 241 179 256 112 320 75 191 216 20 252 191 86 70 277 308 294 271 260 289 335 335 330 331 342 331 318 308 325 342 318 328 345 354 350 347 344 348 347 353 2 4 6 8 11 10
165 156 151 135 134 135 133 133 126 87 192 194 245 251 349 331 227 195 155 139 85 343 25 293 151 300 322 344 358 274 270 129 265 215 179 264 101 163 225 113 332 136 277 96 15 200 195 232 168 114 240 281 61 161 225 218 225 253 257 343 340 2 3 6 328 321 314 313 318 339 343 5 17 2 350 348 353 353 1 357 357 3 9 8 6 5 9
149 139 127 122 121 121 103 97 129 150 347 240 224 75 83 55 63 97 144 138 127 126 120 256 157 211 186 261 306 277 324 313 247 202 192 133 14 59 110 122 190 247 201 139 211 265 197 232 105 263 300 114 221 190 214 196 211 216 181 173 259 168 229 246 266 304 326 332 343 350 353 359 18 349 344 352 356 1 14 5 359 5 10 6 4 2 9
135 126 121 118 112 55 126 196 186 193 206 197 134 126 73 67 52 74 95 326 257 169 213 249 273 244 184 227 276 274 29 320 329 30 341 93 202 273 74 66 226 263 131 302 291 199 251 78 101 149 194 183 246 214 210 193 187 179 199 209 238 260 324 326 325 355 4 357 357 355 349 357 357 351 359 1 356 3 19 16 2 7 8 4 360 3 3
130 126 115 94 80 101 299 254 213 191 124 115 157 69 353 29 97 327 144 186 258 158 230 192 247 244 263 245 257 256 350 267 55 25 309 235 86 295 134 159 229 141 242 225 241 182 105 84 190 174 256 262 262 202 217 219 213 185 183 212 217 225 316 359 14 27 26 1 356 342 343 1 357 332 358 5 2 7 11 9 6 2 6 7 3 358 2
133 124 82 146 129 188 201 248 140 121 96 66 79 70 316 307 74 295 216 205 121 210 234 186 241 184 187 212 263 288 196 294 330 26 76 272 107 304 2 271 298 45 300 10 301 167 338 310 282 101 199 296 87 236 243 228 198 181 183 182 174 190 145 49 169 108 61 233 243 251 235 314 339 324 328 7 357 3 3 9 8 4 7 9 5 2 11
137 141 148 143 213 213 40 354 111 87 61 60 341 103 254 197 122 257 186 133 261 242 170 231 215 192 192 201 211 296 232 142 211 286 229 304 205 162 260 73 263 92 264 89 253 39 128 259 278 88 256 239 227 264 302 191 143 180 187 195 136 144 161 65 358 267 230 279 265 327 337 350 6 7 318 345 31 18 5 5 5 7 11 14 8 13 15
196 112 122 169 177 125 151 124 25 59 90 51 23 3 74 294 224 214 186 231 218 231 186 201 198 216 220 200 176 229 279 136 212 137 124 223 255 85 59 229 240 95 262 257 277 77 85 73 25 172 225 222 218 199 162 117 110 179 279 245 153 170 130 18 345 337 12 350 353 346 334 339 354 350 336 303 32 39 19 13 12 9 17 20 18 9 358
165 151 151 104 99 110 90 35 74 69 7 170 123 261 199 223 268 319 176 186 246 232 245 184 246 198 216 181 194 174 269 203 127 98 99 309 299 151 223 275 7 125 254 236 157 53 82 236 198 244 253 242 235 183 121 120 177 104 72 125 111 129 171 53 345 331 319 333 313 317 309 330 346 346 343 328 12 42 37 24 15 13 16 15 24 15 8
104 104 97 103 57 21 93 86 256 123 123 164 50 325 280 227 212 186 254 246 266 208 258 189 231 208 297 113 211 195 201 199 121 309 78 230 280 62 100 343 48 313 237 302 59 34 15 240 231 246 243 229 210 158 177 177 190 157 119 142 130 144 166 209 309 313 304 295 281 291 305 331 335 338 360 48 33 31 14 28 22 16 14 22 27 22 13
80 60 63 12 88 296 79 227 231 70 306 186 139 212 230 291 294 214 244 260 231 259 231 168 237 155 243 277 147 244 5 354 43 84 351 280 98 261 55 223 215 241 56 38 47 157 223 212 205 209 210 207 191 161 164 157 153 111 68 52 45 49 52 33 1 7 350 342 329 316 353 8 339 356 21 28 55 70 43 29 16 26 24 27 27 24 15
105 52 71 55 68 245 97 294 165 191 219 208 185 215 189 202 226 182 203 238 154 220 259 192 206 177 213 263 49 325 128 192 314 98 244 126 8 277 126 256 248 33 134 251 301 313 0 278 268 221 207 203 202 208 178 172 151 133 141 68 48 52 41 25 354 4 353 356 333 338 341 345 14 21 22 27 25 43 57 36 11 38 31 32 27 27 16
111 163 137 125 157 243 206 201 146 227 245 184 209 200 197 229 187 230 258 240 282 310 323 271 221 187 227 246 144 205 34 101 82 233 196 88 106 254 237 229 71 57 343 53 201 221 219 230 202 204 204 205 211 209 197 158 144 139 96 101 125 73 37 28 0 9 346 1 9 25 10 15 33 45 46 41 42 37 36 27 13 24 35 41 29 25 14
73 25 105 121 133 213 150 198 209 205 182 202 218 195 216 229 241 246 243 260 285 272 284 271 208 184 165 209 175 339 57 107 157 255 80 71 194 258 11 101 263 172 169 253 238 248 258 240 212 211 211 224 195 160 148 146 152 120 130 130 104 90 67 55 21 12 340 12 27 31 29 33 41 57 56 47 36 34 36 35 31 26 36 32 30 36 34
139 193 110 174 212 168 198 231 185 265 241 209 216 194 211 206 293 285 269 220 242 280 264 242 319 346 359 307 93 199 225 119 126 286 182 206 36 37 16 22 296 250 182 180 234 220 217 209 192 197 208 183 139 136 142 143 126 127 125 118 108 91 83 67 16 356 18 51 55 52 48 46 55 58 62 62 51 33 32 38 34 28 29 27 33 42 41
156 150 172 216 208 178 222 236 155 231 242 242 218 210 233 271 267 265 282 289 286 276 219 132 185 97 259 256 119 84 270 281 152 247 40 52 139 216 154 229 190 298 269 200 216 210 203 194 195 178 162 149 159 153 161 157 142 136 137 136 147 146 120 96 67 66 82 77 79 74 68 63 63 61 58 56 56 33 30 45 41 39 33 37 41 51 48
116 296 340 180 351 289 217 132 153 236 253 246 244 247 190 220 258 274 254 268 257 242 12 28 54 107 223 107 294 354 249 232 189 301 83 210 206 204 90 261 226 195 254 247 217 219 197 186 163 157 171 166 150 140 147 167 160 154 149 134 144 138 127 97 91 100 101 107 104 106 95 68 63 59 63 64 63 57 47 43 43 48 46 47 55 63 62
308 155 242 194 175 211 148 181 189 206 210 220 215 228 185 229 228 269 254 229 254 48 50 188 204 120 69 38 97 34 248 182 69 208 169 205 207 133 177 203 239 215 234 237 219 194 178 181 164 170 177 176 165 161 161 163 165 166 161 146 140 139 116 114 131 129 127 135 127 100 96 111 117 97 84 83 65 52 46 36 34 51 60 56 58 69 72
166 217 239 240 209 219 207 112 158 203 206 202 196 229 159 234 245 274 303 307 50 129 215 226 106 110 90 198 220 199 2 35 243 176 311 269 151 150 221 197 234 236 234 252 227 194 185 185 178 169 173 172 173 170 164 160 161 159 153 152 152 143 145 145 148 147 149 139 137 140 146 130 105 92 84 75 61 51 47 35 14 38 51 55 68 76 81